[[{"header":{"parameterUnit":"m.s-1","parameterCategory":1,"la1":30.2991,"la2":30.254,"lo1":-89.0895,"lo2":-89.0444,"dy":0.0017,"dx":0.0017,"nx":28,"ny":28,"refTime":"2024-12-08T09:00:00:Z","depth":0,"parameterNumber":2,"parameterNumberName":"U-component_of_WINDS"},"data":[0,0,0,0,0,0,0,0,0,0,0,0,0,0,0,0,0,0,0,0,0,0,0,0,0,0,0,0,0,0,0,0,0,0,0,0,0,0,0,0,0,0,0,0,0,0,0,0,0,0,0,0,0,0,0,0,0,0,-2.3376,-2.3378,0,-2.3526,-2.3528,-2.3529,-2.3545,-2.3543,-2.3542,-2.354,-2.3692,-2.3698,-2.3703,0,0,0,0,0,0,0,0,0,0,0,0,0,-2.3103,-2.3108,-2.3376,-2.3378,-2.338,-2.3526,-2.3528,-2.353,-2.3545,-2.3543,-2.3541,-2.3539,-2.3691,-2.3697,-2.3704,0,0,0,0,0,0,0,0,0,0,0,0,0,-2.3234,-2.311,-2.3376,-2.3405,-2.3409,-2.3525,-2.3528,-2.353,-2.3545,-2.3543,-2.3541,-2.3538,-2.3688,-2.3696,-2.3704,-2.3801,0,0,-2.373,-2.3733,0,0,0,0,0,0,0,0,-2.3227,-2.3244,-2.3399,-2.3403,-2.3408,-2.3514,-2.3487,-2.3621,-2.3546,-2.3494,-2.354,-2.3537,-2.3635,-2.3647,-2.368,-2.3808,-2.3815,-2.373,-2.3735,-2.3739,-2.3741,0,0,0,0,0,0,0,-2.3217,-2.3238,-2.3435,-2.3401,-2.3407,-2.341,-2.3427,-2.3513,-2.3575,-2.3498,-2.3499,-2.3517,-2.3637,-2.3672,-2.3684,-2.3817,-2.373,-2.3737,-2.3742,-2.3746,-2.403,-2.4033,0,0,0,0,0,0,-2.3203,-2.323,-2.3431,-2.344,-2.331,-2.3417,-2.3435,-2.3482,-2.3574,-2.3586,-2.3519,-2.3517,-2.366,-2.3674,-2.3689,-2.3807,-2.3739,-2.3746,-2.3751,-2.4028,-2.4031,-2.4034,0,0,0,0,0,0,-2.3197,-2.3221,-2.3425,-2.3335,-2.3362,-2.3424,-2.3477,-2.3487,-2.3522,-2.359,-2.3601,-2.3544,-2.3658,-2.3678,-2.3773,-2.3813,-2.375,-2.3758,-2.4025,-2.4029,-2.4032,-2.4044,0,0,0,0,0,0,-2.3189,-2.3219,-2.3256,-2.3336,-2.3366,-2.3506,-2.348,-2.3491,-2.3536,-2.3536,-2.3616,-2.3627,-2.3658,-2.3761,-2.3781,-2.3823,-2.3764,-2.4021,-2.4027,-2.4031,-2.404,-2.4048,-2.4054,0,0,0,0,0,-2.3179,-2.3254,-2.3258,-2.3282,-2.3415,-2.3508,-2.3525,-2.3559,-2.354,-2.3577,-2.3621,-2.3625,-2.3806,-2.377,-2.3794,-2.3838,-2.4019,-2.4025,-2.4031,-2.4037,-2.4046,-2.4054,0,0,0,0,0,0,-2.3176,-2.3264,-2.327,-2.3373,-2.3433,-2.351,-2.3559,-2.3568,-2.3635,-2.3631,-2.367,-2.3689,-2.3781,-2.382,-2.3779,-2.3936,-2.391,-2.3921,-2.3907,-2.3916,-2.3923,-2.3911,-2.3771,0,0,0,0,0,-2.3187,-2.3256,-2.333,-2.3413,-2.3443,-2.3496,-2.3538,-2.3559,-2.3623,-2.3648,-2.3699,-2.376,-2.3831,-2.3876,-2.3945,-2.4047,-2.4064,-2.4089,-2.4096,-2.4101,-2.4109,-2.4164,-2.4176,-2.4053,-2.4053,-2.4053,0,0,-2.3211,-2.3268,-2.3309,-2.3414,-2.3463,-2.3532,-2.3517,-2.3592,-2.3644,-2.3659,-2.3751,-2.3791,-2.3862,-2.3961,-2.4007,-2.3995,-2.4148,-2.4109,-2.4113,-2.4118,-2.4172,-2.4183,-2.4193,-2.4057,-2.4057,-2.4056,0,0,-2.3289,-2.334,-2.3414,-2.3464,-2.3538,-2.3573,-2.3591,-2.3668,-2.3694,-2.3788,-2.3801,-2.3863,-2.3984,-2.4034,-2.4075,-2.4173,-2.4178,-2.4194,-2.4229,-2.4283,-2.4292,-2.4301,-2.4333,-2.4345,-2.4202,-2.4203,-2.4203,0,-2.3309,-2.3415,-2.3451,-2.3525,-2.357,-2.3588,-2.3663,-2.3709,-2.3802,-2.3833,-2.382,-2.3971,-2.4021,-2.413,-2.4153,-2.4187,-2.4207,-2.4184,-2.4288,-2.4297,-2.4306,-2.4337,-2.435,-2.4204,-2.4204,-2.4204,-2.4203,0,-2.3434,-2.3508,-2.3558,-2.3647,-2.3699,-2.3773,-2.382,-2.3867,-2.3884,-2.392,-2.4015,-2.4075,-2.4155,-2.4184,-2.4201,-2.4295,-2.4286,-2.428,-2.4254,-2.4318,-2.4348,-2.4361,-2.4206,-2.4205,-2.4205,-2.4204,0,0,-2.3512,-2.3621,-2.3639,-2.3679,-2.3763,-2.382,-2.3895,-2.3974,-2.4013,-2.4077,-2.414,-2.4242,-2.4237,-2.4284,-2.4307,-2.4354,-2.4425,-2.4342,-2.4345,-2.4353,-2.453,-2.4532,-2.4545,-2.443,-2.4432,-2.4434,-2.4523,0,-2.3598,-2.3731,-2.3766,-2.3879,-2.3947,-2.3965,-2.403,-2.4089,-2.4125,-2.4187,-2.4227,-2.4298,-2.4287,-2.4315,-2.4363,-2.4406,-2.446,-2.44,-2.4487,-2.4489,-2.4465,-2.4561,-2.4564,-2.4644,-2.4535,-2.4537,-2.4539,0,-2.3715,-2.3781,-2.3901,-2.3975,-2.4005,-2.4063,-2.4137,-2.4197,-2.4263,-2.4286,-2.4338,-2.4357,-2.4435,-2.4408,-2.4515,-2.4473,-2.4511,-2.4538,-2.4542,-2.4549,-2.4516,-2.4568,-2.4671,-2.4682,-2.4558,-2.4557,-2.4555,0,-2.3757,-2.3876,-2.3963,-2.3997,-2.4087,-2.4127,-2.4166,-2.423,-2.4275,-2.4341,-2.437,-2.4444,-2.4484,-2.454,-2.4578,-2.4555,-2.4682,-2.4658,-2.4701,-2.47,-2.4725,-2.4722,-2.4832,-2.4754,-2.4753,-2.4753,-2.4753,0,-2.3847,-2.3919,-2.3983,-2.4035,-2.4116,-2.4156,-2.4235,-2.4275,-2.4332,-2.4392,-2.4414,-2.447,-2.4519,-2.4581,-2.4612,-2.4695,-2.4713,-2.4733,-2.474,-2.4729,-2.4726,-2.4753,-2.4747,-2.4756,-2.4756,-2.4755,-2.4755,0,-2.3906,-2.3952,-2.4047,-2.4125,-2.4146,-2.4202,-2.4268,-2.4319,-2.4357,-2.4433,-2.4453,-2.4512,-2.4586,-2.4631,-2.4726,-2.4746,-2.4837,-2.4843,-2.4814,-2.4816,-2.4857,-2.4851,-2.4985,-2.5004,-2.4915,-2.4916,-2.4917,0,-2.3959,-2.4015,-2.4098,-2.414,-2.418,-2.4248,-2.4294,-2.4336,-2.4383,-2.4462,-2.4504,-2.4581,-2.4644,-2.4762,-2.4813,-2.4885,-2.4891,-2.4933,-2.4902,-2.4889,-2.4888,-2.4884,-2.4888,-2.4937,-2.4938,-2.4939,-2.4939,0,-2.4048,-2.4068,-2.4133,-2.4207,-2.4261,-2.4321,-2.4381,-2.4414,-2.4466,-2.4518,-2.4594,-2.4643,-2.474,-2.4815,-2.4892,-2.4931,-2.4943,-2.4949,-2.4962,-2.4951,-2.4931,-2.494,-2.4825,-2.4945,-2.4944,-2.4944,-2.4944,-2.4943,-2.4104,-2.4154,-2.422,-2.4292,-2.4341,-2.4397,-2.4448,-2.4493,-2.4557,-2.4639,-2.4661,-2.474,-2.4805,-2.4909,-2.4951,-2.5014,-2.5007,-2.5027,-2.5032,-2.5035,-2.5035,-2.4923,-2.5029,-2.5028,-2.5028,-2.5028,-2.5028,0,-2.4191,-2.4235,-2.4301,-2.4384,-2.444,-2.4448,-2.4515,-2.4561,-2.4631,-2.4691,-2.4753,-2.484,-2.4913,-2.497,-2.5044,-2.5083,-2.5091,-2.5101,-2.5097,-2.5106,-2.5038,-2.5018,-2.5094,-2.5094,-2.5094,-2.5094,-2.5094,-2.5094,-2.4243,-2.4327,-2.4355,-2.4463,-2.4507,-2.4585,-2.4622,-2.4673,-2.4721,-2.4817,-2.4878,-2.4915,-2.4973,-2.5052,-2.5119,-2.5134,-2.5159,-2.5168,-2.5183,-2.5118,-2.5111,-2.5104,-2.5085,-2.5174,-2.5174,-2.5246,-2.5246,-2.5247]},{"header":{"parameterUnit":"m.s-1","parameterCategory":1,"la1":30.2991,"la2":30.254,"lo1":-89.0895,"lo2":-89.0444,"dy":0.0017,"dx":0.0017,"nx":28,"ny":28,"refTime":"2024-12-08T09:00:00:Z","depth":0,"parameterNumber":3,"parameterNumberName":"V-component_of_WINDS"},"data":[0,0,0,0,0,0,0,0,0,0,0,0,0,0,0,0,0,0,0,0,0,0,0,0,0,0,0,0,0,0,0,0,0,0,0,0,0,0,0,0,0,0,0,0,0,0,0,0,0,0,0,0,0,0,0,0,0,0,3.0002,3.0003,0,3.0056,3.0057,3.0058,3.0064,3.0063,3.0063,3.0062,3.0115,3.0117,3.0119,0,0,0,0,0,0,0,0,0,0,0,0,0,2.9902,2.9904,3.0002,3.0003,3.0004,3.0056,3.0057,3.0058,3.0064,3.0063,3.0063,3.0062,3.0114,3.0117,3.0119,0,0,0,0,0,0,0,0,0,0,0,0,0,2.995,2.9905,3.0002,3.0013,3.0015,3.0056,3.0057,3.0058,3.0064,3.0063,3.0063,3.0062,3.0114,3.0116,3.0119,3.0152,0,0,3.0128,3.0129,0,0,0,0,0,0,0,0,2.9947,2.9954,3.0011,3.0012,3.0014,3.0053,3.0041,3.0089,3.0064,3.0045,3.0062,3.0061,3.0095,3.0099,3.0111,3.0155,3.0157,3.0128,3.013,3.0131,3.0132,0,0,0,0,0,0,0,2.9944,2.9951,3.0024,3.0012,3.0014,3.0015,3.0021,3.005,3.0074,3.0047,3.0047,3.0054,3.0095,3.0108,3.0112,3.0158,3.0128,3.013,3.0132,3.0133,3.0233,3.0234,0,0,0,0,0,0,2.9939,2.9949,3.0022,3.0025,2.9978,3.0017,3.0024,3.0041,3.0073,3.0078,3.0055,3.0054,3.0104,3.0109,3.0114,3.0156,3.0131,3.0134,3.0135,3.0232,3.0233,3.0234,0,0,0,0,0,0,2.9937,2.9945,3.002,2.9987,2.9997,3.002,3.0039,3.0043,3.0055,3.0079,3.0083,3.0063,3.0103,3.011,3.0143,3.0158,3.0135,3.0137,3.0231,3.0233,3.0234,3.024,0,0,0,0,0,0,2.9934,2.9945,2.9958,2.9987,2.9998,3.0049,3.004,3.0044,3.006,3.006,3.0088,3.0092,3.0103,3.0139,3.0146,3.0162,3.014,3.023,3.0232,3.0234,3.0239,3.0242,3.0244,0,0,0,0,0,2.993,2.9957,2.9959,2.9967,3.0016,3.005,3.0056,3.0068,3.0062,3.0075,3.0091,3.0091,3.0155,3.0142,3.015,3.0167,3.0229,3.0231,3.0233,3.0238,3.0241,3.0244,0,0,0,0,0,0,2.9927,2.9961,2.9963,3.0,3.0022,3.0051,3.0068,3.0071,3.0095,3.0094,3.0108,3.0114,3.0147,3.016,3.0145,3.0201,3.0191,3.0195,3.0192,3.0195,3.0198,3.0194,3.0142,0,0,0,0,0,2.9931,2.9957,2.9984,3.0014,3.0025,3.0045,3.006,3.0068,3.0091,3.01,3.0118,3.0139,3.0164,3.018,3.0204,3.024,3.0247,3.0256,3.0258,3.0261,3.0264,3.0285,3.0289,3.0242,3.0242,3.0241,0,0,2.9939,2.996,2.9975,3.0014,3.0032,3.0058,3.0052,3.0079,3.0099,3.0103,3.0137,3.0151,3.0176,3.0211,3.0227,3.0223,3.0279,3.0263,3.0265,3.0267,3.0288,3.0292,3.0296,3.0243,3.0243,3.0242,0,0,2.9966,2.9985,3.0012,3.0031,3.0059,3.0072,3.0078,3.0107,3.0117,3.015,3.0155,3.0177,3.022,3.0238,3.0253,3.0288,3.029,3.0295,3.031,3.033,3.0334,3.0337,3.0351,3.0355,3.0299,3.0299,3.0299,0,2.9972,3.0012,3.0026,3.0054,3.0071,3.0077,3.0105,3.0122,3.0156,3.0167,3.0162,3.0217,3.0234,3.0274,3.0283,3.0294,3.0302,3.0293,3.0332,3.0336,3.0339,3.0352,3.0357,3.0299,3.0299,3.0299,3.0299,0,3.0019,3.0046,3.0065,3.0099,3.0118,3.0146,3.0163,3.0181,3.0187,3.02,3.0235,3.0256,3.0285,3.0295,3.03,3.0336,3.0333,3.0329,3.032,3.0344,3.0357,3.0362,3.03,3.03,3.03,3.0299,0,0,3.0046,3.0088,3.0095,3.0111,3.0143,3.0164,3.0192,3.0221,3.0236,3.0259,3.0283,3.032,3.0317,3.0334,3.0342,3.036,3.0388,3.0355,3.0355,3.0361,3.0429,3.0432,3.0437,3.0389,3.039,3.0391,3.0427,0,3.0078,3.013,3.0143,3.0186,3.0212,3.0219,3.0243,3.0265,3.0278,3.0302,3.0316,3.0342,3.0337,3.0347,3.0365,3.038,3.0402,3.0378,3.0411,3.0412,3.0406,3.0444,3.0447,3.048,3.0432,3.0433,3.0433,0,3.0123,3.0149,3.0195,3.0224,3.0236,3.0257,3.0286,3.0308,3.0333,3.0341,3.0361,3.0367,3.0396,3.0384,3.0425,3.0408,3.0423,3.0432,3.0434,3.0438,3.0425,3.045,3.0491,3.0496,3.0441,3.044,3.044,0,3.014,3.0186,3.022,3.0233,3.0268,3.0283,3.0298,3.0322,3.0339,3.0364,3.0375,3.0402,3.0417,3.0438,3.0451,3.0441,3.0491,3.048,3.0499,3.0499,3.0509,3.0509,3.0554,3.0517,3.0517,3.0517,3.0517,0,3.0175,3.0204,3.0228,3.0249,3.0281,3.0296,3.0327,3.0342,3.0363,3.0387,3.0393,3.0415,3.0431,3.0455,3.0466,3.0498,3.0504,3.0512,3.0515,3.0512,3.0511,3.0522,3.0521,3.0518,3.0518,3.0518,3.0517,0,3.02,3.0218,3.0255,3.0285,3.0294,3.0316,3.0341,3.0362,3.0375,3.0405,3.0413,3.0434,3.0463,3.0478,3.0513,3.052,3.0557,3.0558,3.0549,3.055,3.0569,3.0567,3.0624,3.0632,3.0588,3.0589,3.0589,0,3.0222,3.0245,3.0277,3.0294,3.031,3.0337,3.0355,3.037,3.0388,3.0418,3.0435,3.0464,3.0489,3.0534,3.0552,3.0579,3.0581,3.0599,3.0586,3.0583,3.0583,3.0582,3.0585,3.0602,3.0603,3.0603,3.0603,0,3.026,3.0268,3.0294,3.0324,3.0345,3.0369,3.0392,3.0406,3.0424,3.0445,3.0475,3.0494,3.0531,3.056,3.0588,3.0603,3.0606,3.0607,3.0613,3.0611,3.0606,3.061,3.0557,3.0606,3.0606,3.0606,3.0605,3.0605,3.0285,3.0306,3.0332,3.0361,3.0381,3.0403,3.0424,3.044,3.0466,3.0498,3.0505,3.0537,3.0561,3.06,3.0616,3.0641,3.0637,3.0645,3.0648,3.065,3.0651,3.0601,3.0646,3.0646,3.0645,3.0645,3.0645,0,3.0324,3.0342,3.0369,3.0402,3.0425,3.0427,3.0453,3.0472,3.05,3.0523,3.0547,3.0582,3.061,3.063,3.0659,3.0675,3.0677,3.0682,3.0682,3.0685,3.0652,3.0645,3.068,3.068,3.068,3.068,3.068,3.068,3.0347,3.0383,3.0394,3.0438,3.0455,3.0488,3.0503,3.0523,3.0541,3.058,3.0604,3.0618,3.0639,3.067,3.0696,3.0701,3.0712,3.0717,3.0722,3.0691,3.0687,3.0684,3.0677,3.0719,3.0719,3.0753,3.0753,3.0754]}]]